Temperature
1 2 1 2 2 1 1 2 2 2 2 4 3 3 3 4 4 4 4 4 5 5 5 5 5 4 4 4 4 4 4 4 4 4 4 4 4 4 3 3 3 3 3 3
0 1 1 1 2 2 2 2 2 2 2 3 3 3 3 3 3 3 4 4 4 4 4 4 4 4 4 4 4 4 4 4 4 4 3 3 3 3 3 3 3 3 3 3
0 1 1 1 2 2 2 2 2 2 3 3 3 2 3 3 3 3 3 3 3 3 3 3 3 3 3 3 3 3 3 3 3 3 3 3 3 3 3 2 2 3 3 3
-1 -0 0 2 2 2 2 2 1 2 2 2 2 2 2 3 3 3 3 2 3 3 3 3 3 3 3 3 3 3 3 2 2 2 2 2 2 2 2 2 2 2 2 2
-1 -1 -0 1 1 1 1 1 1 1 1 1 2 1 2 2 2 2 2 2 2 2 2 2 2 2 2 2 2 2 2 2 2 2 2 2 2 2 2 2 2 2 2 2
-2 -1 -0 1 1 1 1 1 1 1 1 0 1 0 0 2 2 2 2 2 1 2 1 2 2 1 1 2 1 1 1 1 1 1 1 1 1 1 1 1 1 1 1 1
-2 -2 -1 -0 0 1 1 0 1 1 1 1 -0 0 1 1 1 1 1 1 1 1 1 1 1 1 1 1 1 1 1 1 1 1 1 1 1 1 1 1 1 1 1 1
-2 -2 -1 -0 -0 -0 0 1 1 1 1 1 1 1 1 1 1 1 1 1 0 0 0 0 0 0 0 0 0 0 0 1 1 1 1 0 0 0 0 0 0 0 0 0
-2 -1 -1 0 0 1 1 1 1 1 1 1 0 0 0 0 0 0 0 -0 -0 -0 -0 -0 -0 -0 -0 -0 -0 -0 0 0 0 0 0 0 -0 -0 -0 -0 -0 -1 -1 -0
-3 -2 -1 -0 0 1 1 1 1 1 0 0 -0 -0 -0 -1 -1 -1 -1 -1 -1 -1 -1 -1 -1 -1 -1 -1 -1 -1 -0 -0 -0 -0 -0 -0 -1 -1 -1 -1 -1 -1 -1 -1
-3 -2 -2 -1 -0 0 0 0 0 -0 -0 -0 -1 -1 -1 -1 -1 -1 -1 -1 -1 -1 -1 -1 -1 -1 -1 -1 -1 -1 -1 -1 -1 -1 -1 -1 -1 -1 -1 -1 -2 -2 -1 -1
-2 -2 -2 -2 -1 -1 -0 -0 -1 -1 -1 -1 -1 -1 -2 -2 -2 -2 -2 -2 -2 -2 -2 -2 -2 -2 -2 -2 -2 -2 -1 -1 -1 -1 -2 -2 -2 -2 -2 -2 -2 -2 -1 -1
-1 -1 -1 -1 -1 -1 -1 -1 -1 -1 -2 -2 -2 -2 -2 -2 -2 -2 -2 -2 -2 -3 -2 -2 -2 -2 -2 -2 -2 -2 -2 -2 -2 -2 -2 -2 -2 -2 -2 -2 -2 -1 -1 -1
-2 -2 -2 -2 -2 -2 -2 -2 -2 -2 -2 -2 -2 -2 -3 -3 -3 -3 -3 -3 -3 -3 -3 -3 -3 -3 -3 -3 -3 -2 -2 -2 -2 -2 -3 -3 -3 -3 -3 -3 -2 -2 -1 -1
-3 -3 -3 -3 -3 -3 -3 -3 -3 -3 -3 -3 -3 -3 -3 -4 -4 -4 -4 -4 -4 -3 -3 -3 -3 -3 -3 -3 -3 -3 -3 -3 -3 -3 -3 -3 -3 -3 -3 -3 -3 -2 -2 -2
-3 -3 -3 -3 -3 -3 -3 -3 -3 -3 -4 -4 -4 -4 -4 -4 -4 -4 -4 -4 -4 -4 -4 -4 -4 -3 -3 -3 -3 -3 -3 -3 -3 -3 -3 -3 -3 -4 -3 -3 -3 -3 -3 -2
-4 -4 -4 -4 -4 -4 -4 -4 -4 -4 -4 -4 -4 -4 -5 -5 -5 -4 -4 -5 -5 -4 -4 -4 -4 -4 -4 -4 -4 -4 -4 -4 -4 -4 -4 -4 -4 -4 -4 -4 -3 -3 -3 -3
-5 -5 -5 -5 -5 -5 -5 -5 -5 -5 -5 -5 -5 -5 -5 -5 -5 -5 -5 -5 -5 -5 -4 -5 -4 -4 -4 -4 -4 -4 -4 -4 -4 -4 -4 -4 -4 -4 -4 -4 -3 -3 -3 -3
-5 -5 -5 -5 -5 -5 -5 -5 -5 -6 -6 -6 -6 -6 -6 -6 -6 -6 -6 -6 -6 -5 -5 -5 -5 -5 -5 -5 -5 -5 -5 -5 -5 -4 -4 -4 -4 -4 -4 -4 -4 -4 -4 -4
-6 -6 -6 -6 -6 -6 -6 -6 -6 -6 -6 -6 -6 -6 -6 -6 -7 -6 -6 -6 -6 -6 -6 -6 -6 -5 -5 -5 -5 -5 -5 -5 -5 -5 -5 -5 -5 -5 -5 -4 -4 -4 -4 -4
-6 -6 -6 -6 -6 -6 -6 -7 -7 -6 -7 -7 -7 -7 -7 -7 -7 -7 -7 -7 -6 -6 -6 -6 -6 -6 -6 -6 -6 -6 -5 -5 -5 -5 -5 -5 -5 -5 -5 -5 -5 -4 -4 -4
-7 -7 -7 -7 -7 -7 -7 -7 -7 -7 -7 -7 -7 -7 -7 -7 -7 -7 -7 -7 -7 -7 -7 -6 -6 -6 -6 -6 -6 -6 -6 -6 -6 -6 -6 -6 -6 -6 -5 -5 -5 -5 -5 -5
-7 -7 -7 -8 -8 -8 -8 -8 -8 -8 -8 -8 -8 -8 -8 -8 -8 -8 -7 -7 -7 -7 -7 -7 -7 -7 -6 -6 -6 -6 -6 -6 -6 -6 -6 -6 -6 -6 -6 -6 -5 -5 -5 -5
-8 -8 -8 -8 -8 -8 -8 -8 -8 -8 -8 -8 -8 -8 -8 -8 -8 -8 -8 -7 -7 -7 -7 -7 -7 -7 -7 -6 -6 -6 -6 -6 -6 -6 -6 -6 -6 -6 -6 -6 -6 -6 -6 -5
-8 -8 -8 -9 -9 -9 -9 -9 -9 -9 -9 -9 -8 -8 -8 -8 -8 -8 -8 -8 -8 -7 -7 -7 -7 -7 -7 -7 -6 -6 -6 -7 -7 -7 -7 -6 -6 -6 -6 -6 -6 -6 -6 -6
-9 -9 -9 -9 -9 -10 -10 -10 -9 -9 -9 -9 -9 -8 -8 -8 -8 -8 -8 -8 -8 -8 -8 -8 -7 -7 -7 -7 -7 -7 -7 -7 -7 -7 -7 -7 -7 -7 -7 -6 -6 -6 -6 -6
-9 -9 -9 -9 -10 -10 -10 -10 -10 -10 -9 -9 -9 -9 -8 -8 -8 -8 -8 -8 -8 -8 -8 -8 -8 -8 -7 -7 -7 -7 -7 -7 -7 -7 -7 -7 -7 -7 -7 -7 -6 -6 -6 -6
Wind_Speed
5 4 3 6 8 8 10 9 9 9 10 12 8 6 6 5 4 4 4 4 4 4 4 4 5 5 4 5 5 4 4 5 5 6 6 6 6 6 6 6 6 6 5 5
4 4 5 8 11 11 12 10 11 11 12 9 5 3 4 4 4 4 5 5 5 4 4 4 5 5 5 5 5 5 5 5 6 5 6 6 5 6 6 5 5 5 5 5
4 2 2 8 10 11 7 7 8 11 11 5 3 4 5 5 4 4 5 5 5 5 5 5 5 5 5 6 5 5 5 5 5 5 6 6 6 5 6 6 5 5 5 4
2 1 7 6 2 5 7 7 7 7 5 3 4 4 4 3 3 3 4 4 5 5 5 5 4 5 5 5 4 4 5 5 5 5 6 6 5 5 6 5 5 5 5 5
3 4 7 6 2 2 4 4 4 5 4 3 1 2 4 3 2 3 4 4 4 4 4 4 5 5 5 5 5 5 5 6 6 6 6 6 6 6 5 4 5 4 4 4
3 4 6 5 3 2 2 4 4 3 4 3 0 1 4 3 2 3 4 3 4 4 4 4 5 5 5 5 5 6 7 7 6 6 6 6 6 6 5 4 4 4 4 4
5 5 6 6 4 1 3 4 3 2 3 2 2 3 3 4 3 3 3 3 3 4 4 4 5 4 5 6 6 7 7 6 6 6 6 5 5 4 4 4 4 4 4 4
4 4 7 3 2 3 5 3 2 1 2 1 2 2 3 4 4 4 4 4 4 4 5 5 5 4 5 7 7 6 6 6 6 6 5 5 4 4 4 3 3 4 4 5
6 6 4 3 4 4 2 2 2 2 2 1 2 3 4 4 4 4 4 4 4 4 6 6 5 4 6 8 7 6 6 6 6 6 5 4 4 4 4 3 2 3 3 4
4 6 5 5 5 3 2 3 2 1 1 1 2 3 4 4 4 4 5 5 5 5 6 7 7 6 6 7 6 5 6 6 5 5 5 4 4 3 3 3 3 3 3 3
5 6 5 4 3 3 2 1 1 2 1 1 1 3 4 4 5 4 5 5 4 5 6 7 7 7 7 7 6 5 6 5 5 4 4 4 4 3 3 3 3 3 3 3
6 6 4 4 3 1 1 2 2 2 3 2 1 3 4 4 4 4 5 5 5 5 6 7 7 7 7 6 5 5 5 5 4 4 4 3 3 4 6 5 7 7 6 5
5 3 3 3 3 1 1 2 2 2 2 2 3 2 3 4 4 4 5 5 6 6 6 6 7 7 7 6 5 5 5 5 4 3 3 3 3 3 5 6 7 6 6 6
3 1 2 3 2 2 1 1 2 2 2 2 2 3 3 4 5 5 5 6 6 6 6 6 6 7 7 6 5 5 5 5 4 3 3 3 3 3 3 4 5 5 6 6
3 1 2 2 2 2 2 1 2 3 3 3 3 3 4 5 6 6 6 6 6 6 6 6 7 8 7 6 5 5 4 4 3 3 3 3 3 2 2 3 3 4 4 5
4 2 2 1 2 2 2 2 2 3 3 4 4 5 5 5 6 6 5 5 5 6 7 6 7 7 6 5 5 4 4 5 4 3 3 2 2 2 2 3 3 3 3 3
2 3 3 3 3 3 2 2 3 4 4 4 5 5 5 5 5 6 6 5 5 6 6 6 7 7 6 5 4 4 3 4 5 3 2 2 2 2 2 2 2 2 2 3
2 2 2 3 3 4 4 3 3 4 4 5 5 4 4 4 5 6 7 6 6 6 6 6 6 6 6 5 4 3 3 3 2 2 2 2 2 2 2 2 2 2 2 3
3 3 3 3 2 2 3 4 4 4 4 4 4 4 4 5 5 6 6 5 6 7 7 6 9 7 6 6 5 2 2 2 2 2 2 3 3 2 2 2 2 2 2 3
4 4 4 4 3 2 3 3 3 3 4 4 4 4 4 5 5 5 5 5 5 5 6 7 7 5 5 5 5 2 2 2 2 2 2 2 2 2 2 2 2 2 2 2
5 4 4 4 4 4 3 3 3 4 4 3 3 4 5 5 5 4 4 5 6 6 6 8 6 5 4 4 5 3 2 2 2 2 2 2 2 2 2 2 2 2 2 2
4 4 4 4 4 5 5 4 3 3 4 4 4 4 4 5 5 5 4 4 5 8 6 4 4 5 5 5 3 2 2 2 2 2 2 2 2 2 2 2 2 2 2 2
4 4 4 4 4 4 5 4 4 3 4 4 4 4 4 4 4 4 5 4 4 7 6 4 5 7 7 4 3 2 2 2 2 2 2 2 2 2 2 2 2 2 3 3
4 4 4 4 3 4 5 5 5 4 4 4 4 4 4 4 4 3 4 6 8 8 5 6 7 7 6 3 3 2 2 2 2 2 2 2 2 2 2 2 2 2 2 3
4 4 4 4 4 3 4 5 5 5 4 4 4 5 4 3 3 4 4 5 7 7 5 6 8 8 5 3 3 3 2 2 2 2 2 2 2 2 2 2 2 2 2 2
3 3 3 3 3 3 3 3 3 4 4 4 4 4 4 4 4 4 4 4 5 6 4 4 4 5 4 3 3 3 2 2 3 2 2 2 2 2 2 2 2 2 2 2
3 3 3 3 3 3 3 3 3 4 4 4 4 4 4 4 4 4 4 4 4 3 3 3 3 3 3 3 3 2 2 2 2 2 2 1 1 1 1 2 2 2 2 2
Wind_Direction
256 259 226 240 240 219 214 215 223 243 245 260 269 271 281 292 302 311 314 315 310 310 314 321 320 318 315 313 314 312 307 303 295 294 293 294 295 296 295 293 293 288 288 289
267 254 245 261 250 235 232 231 238 253 264 262 262 269 284 291 294 294 297 301 305 308 310 313 313 313 315 314 314 315 302 295 297 305 310 303 298 302 304 303 298 298 294 290
254 264 298 260 234 216 212 212 210 235 250 255 264 264 268 274 275 276 286 298 306 305 300 303 305 307 308 308 315 314 306 305 311 315 314 307 305 312 308 303 300 302 297 290
222 177 234 247 257 209 216 234 224 236 256 255 245 267 289 286 275 286 297 305 311 311 310 313 313 316 316 319 319 315 313 313 316 315 310 309 313 309 302 297 298 295 292 290
190 224 268 288 280 198 205 258 247 230 251 276 291 335 315 303 274 283 295 300 303 306 308 317 322 325 329 326 325 322 316 314 310 305 302 305 306 302 301 299 295 285 278 279
185 213 241 261 283 274 148 271 275 207 218 226 149 299 283 304 314 312 316 316 319 326 331 333 329 332 333 325 322 314 311 310 308 304 301 302 303 305 306 301 294 287 282 278
213 233 261 267 286 82 175 247 278 233 236 220 221 235 266 311 325 329 324 325 330 334 333 324 321 330 326 317 309 306 308 308 307 307 304 299 300 302 304 304 307 306 299 296
185 218 253 249 142 179 226 247 241 243 257 235 250 285 306 323 327 335 336 333 334 334 329 323 323 329 320 308 305 309 310 309 308 307 307 309 303 305 306 306 310 310 310 311
196 218 247 236 225 252 232 243 257 243 265 248 270 293 311 316 320 327 328 324 327 327 325 324 325 323 310 307 311 312 312 310 311 314 316 315 309 308 311 307 300 301 308 309
244 267 271 278 281 288 264 253 273 270 287 291 280 296 309 315 316 320 320 321 326 329 326 321 323 321 308 309 313 311 310 311 313 316 320 326 324 316 312 310 305 304 305 300
254 276 295 303 293 282 289 275 333 344 338 310 295 298 299 307 308 308 311 314 318 316 311 311 317 318 317 317 319 315 311 310 312 313 313 322 326 321 308 300 291 295 293 286
243 251 232 261 286 304 319 314 319 335 331 329 297 290 301 303 305 305 308 313 315 313 311 311 315 316 317 317 316 311 310 310 310 314 319 323 329 336 338 327 326 321 314 309
252 272 240 261 299 321 278 297 315 314 290 302 307 298 301 303 308 307 309 313 312 310 310 311 315 315 316 317 316 311 304 306 312 318 322 324 326 329 332 340 345 347 342 335
285 286 279 283 295 323 335 330 339 335 326 306 306 313 314 312 313 312 311 312 314 316 315 315 315 314 315 317 317 316 315 315 320 319 320 322 323 326 326 329 336 343 348 350
331 281 254 294 336 352 0 3 356 335 331 335 332 326 321 315 309 307 310 315 319 318 316 318 315 313 317 318 319 316 318 319 323 324 324 324 325 329 332 332 331 334 344 351
327 347 348 338 325 334 349 347 316 305 312 313 318 317 310 302 300 305 312 317 315 311 312 315 312 312 317 318 318 316 316 316 322 325 329 333 334 338 340 338 337 339 340 340
330 330 334 318 305 306 304 294 281 286 295 300 303 310 313 312 312 316 319 318 307 302 305 307 307 313 315 314 312 310 312 320 325 330 334 335 340 344 342 342 337 341 340 343
302 289 292 277 274 286 297 301 297 298 297 298 305 311 311 307 303 306 313 317 320 319 317 313 314 317 316 316 314 311 315 322 332 335 337 337 338 344 346 341 341 347 351 354
352 344 337 318 295 281 286 293 296 297 300 303 305 303 298 296 296 300 309 316 317 315 318 321 321 324 320 319 322 320 326 329 334 337 337 330 339 349 354 354 354 349 355 5
352 352 350 344 339 319 302 300 300 301 301 301 301 305 308 307 306 307 309 304 300 298 307 317 320 322 324 325 331 335 335 332 334 336 339 345 353 358 1 359 356 359 11 10
347 347 347 345 339 333 318 308 307 309 312 312 306 301 302 306 311 310 310 310 312 315 318 322 328 328 331 338 342 352 351 348 347 349 349 359 9 10 10 11 8 10 14 11
340 341 339 340 341 337 334 331 324 319 322 324 322 316 315 317 320 317 303 290 303 319 327 324 324 332 345 348 352 354 356 358 358 360 7 16 18 16 13 15 17 16 18 21
333 335 335 336 331 326 332 338 337 332 328 324 321 317 312 308 309 308 312 314 316 324 331 327 333 343 349 355 356 0 2 2 1 5 14 18 16 15 14 17 20 20 22 26
337 340 337 334 337 344 342 337 340 337 329 323 320 316 313 315 317 308 296 311 325 329 335 336 344 350 355 2 2 5 2 358 358 6 10 15 18 19 21 23 24 25 27 28
336 336 340 346 348 337 327 331 339 341 339 336 332 330 324 309 301 311 317 321 329 336 340 344 351 355 1 1 2 358 355 353 5 15 10 12 14 20 22 25 27 26 22 21
332 330 326 320 314 315 321 329 332 332 335 334 333 334 331 326 319 318 321 326 330 336 340 343 350 354 359 358 355 351 350 347 356 10 19 17 17 21 26 29 25 22 19 22
337 338 338 339 337 333 329 327 326 325 326 323 320 323 326 329 330 331 330 331 336 342 343 345 349 350 349 348 346 343 343 348 358 5 9 13 15 20 24 24 24 21 22 25
Height
1435 1433 1434 1434 1433 1435 1437 1435 1436 1429 1427 1420 1418 1418 1417 1416 1416 1415 1414 1413 1412 1411 1410 1408 1407 1405 1405 1403 1402 1401 1399 1397 1395 1393 1391 1389 1387 1384 1382 1380 1378 1377 1375 1374
1435 1431 1432 1430 1427 1427 1427 1428 1428 1426 1422 1416 1416 1416 1416 1415 1414 1413 1413 1412 1410 1409 1407 1406 1405 1403 1402 1400 1399 1397 1395 1393 1391 1389 1386 1384 1382 1379 1377 1375 1373 1372 1370 1369
1434 1431 1429 1428 1420 1419 1420 1419 1421 1420 1416 1414 1415 1414 1414 1413 1412 1412 1411 1410 1408 1407 1405 1404 1402 1401 1399 1397 1396 1394 1392 1390 1387 1385 1383 1380 1378 1375 1373 1371 1369 1367 1366 1365
1435 1434 1433 1418 1413 1412 1414 1414 1415 1413 1412 1412 1413 1412 1412 1411 1411 1410 1409 1407 1406 1404 1403 1401 1400 1398 1396 1394 1392 1390 1388 1386 1384 1382 1379 1377 1374 1371 1369 1367 1365 1364 1362 1361
1435 1434 1427 1417 1413 1413 1414 1413 1412 1411 1411 1411 1411 1411 1410 1410 1409 1408 1407 1406 1404 1403 1401 1399 1397 1395 1393 1391 1389 1387 1385 1383 1381 1379 1376 1373 1370 1368 1366 1363 1362 1360 1359 1357
1434 1432 1427 1416 1411 1410 1412 1413 1410 1409 1409 1410 1410 1413 1410 1408 1407 1406 1405 1403 1402 1400 1399 1397 1395 1393 1391 1388 1386 1384 1382 1380 1378 1376 1373 1370 1368 1365 1363 1361 1359 1357 1356 1354
1430 1430 1423 1414 1410 1410 1416 1413 1409 1407 1407 1408 1409 1409 1408 1406 1405 1404 1403 1401 1400 1398 1397 1395 1393 1391 1388 1386 1384 1382 1380 1378 1375 1373 1371 1368 1366 1363 1361 1358 1356 1354 1352 1351
1428 1428 1423 1410 1410 1412 1410 1407 1407 1406 1406 1407 1406 1406 1405 1404 1403 1402 1401 1399 1398 1396 1394 1393 1391 1389 1386 1384 1382 1380 1377 1375 1373 1370 1368 1366 1363 1361 1359 1356 1353 1351 1350 1348
1419 1417 1410 1407 1407 1406 1406 1405 1405 1405 1405 1405 1405 1404 1404 1403 1402 1401 1399 1398 1396 1394 1392 1390 1389 1386 1383 1381 1379 1377 1374 1372 1370 1367 1365 1363 1361 1358 1356 1354 1351 1349 1347 1346
1414 1410 1407 1406 1405 1404 1404 1404 1404 1404 1404 1404 1403 1403 1402 1401 1400 1398 1397 1395 1394 1392 1389 1387 1386 1384 1381 1379 1376 1374 1371 1369 1367 1365 1362 1360 1358 1356 1354 1351 1349 1347 1346 1344
1411 1407 1405 1403 1403 1403 1403 1403 1403 1403 1403 1402 1402 1401 1400 1399 1398 1396 1395 1393 1392 1390 1387 1385 1383 1380 1378 1376 1374 1371 1369 1367 1365 1362 1360 1358 1356 1354 1352 1350 1349 1347 1345 1344
1407 1404 1404 1403 1402 1401 1401 1401 1401 1401 1400 1400 1400 1399 1398 1397 1395 1394 1392 1390 1388 1387 1384 1382 1380 1377 1375 1373 1371 1368 1366 1364 1362 1360 1358 1356 1353 1351 1350 1348 1347 1345 1344 1342
1401 1400 1401 1400 1400 1399 1399 1399 1399 1399 1398 1398 1398 1397 1396 1394 1393 1391 1390 1388 1385 1383 1381 1379 1376 1374 1372 1370 1368 1366 1364 1362 1360 1357 1356 1354 1351 1349 1346 1345 1344 1342 1341 1340
1399 1399 1398 1398 1398 1397 1397 1397 1397 1397 1396 1396 1395 1394 1393 1391 1390 1388 1386 1384 1382 1380 1378 1376 1374 1371 1369 1367 1366 1364 1362 1360 1358 1356 1354 1352 1350 1348 1346 1343 1341 1340 1339 1339
1397 1397 1397 1396 1396 1395 1395 1395 1395 1394 1394 1393 1392 1391 1390 1388 1386 1385 1383 1382 1380 1377 1375 1373 1371 1369 1367 1365 1363 1361 1359 1357 1356 1354 1352 1350 1348 1346 1344 1343 1341 1339 1338 1338
1395 1395 1394 1394 1394 1393 1393 1393 1392 1391 1391 1390 1389 1388 1387 1386 1384 1382 1380 1379 1377 1374 1372 1370 1368 1366 1364 1363 1361 1359 1357 1355 1354 1352 1350 1348 1346 1344 1343 1342 1340 1339 1338 1338
1394 1393 1392 1392 1391 1391 1391 1390 1390 1389 1388 1387 1386 1385 1384 1382 1380 1379 1377 1375 1374 1372 1370 1368 1365 1364 1362 1360 1358 1357 1355 1353 1351 1349 1348 1346 1345 1343 1342 1341 1340 1339 1338 1338
1394 1393 1392 1391 1390 1389 1388 1388 1387 1386 1385 1384 1383 1382 1381 1379 1377 1375 1374 1372 1370 1369 1367 1365 1363 1361 1359 1358 1356 1354 1353 1351 1349 1348 1346 1345 1344 1342 1341 1340 1340 1339 1338 1338
1392 1391 1390 1389 1388 1387 1386 1385 1385 1384 1383 1382 1380 1379 1377 1376 1375 1373 1371 1369 1367 1365 1364 1362 1360 1358 1357 1355 1354 1352 1351 1349 1347 1346 1345 1344 1342 1342 1341 1340 1339 1339 1339 1338
1391 1390 1389 1387 1386 1385 1384 1383 1382 1381 1380 1379 1377 1376 1374 1373 1372 1370 1368 1367 1365 1363 1362 1360 1358 1356 1355 1353 1352 1350 1349 1347 1346 1344 1343 1342 1341 1341 1340 1340 1340 1339 1339 1338
1390 1389 1387 1386 1384 1383 1382 1381 1379 1378 1377 1376 1374 1373 1372 1371 1369 1368 1366 1364 1363 1361 1359 1358 1356 1354 1353 1351 1350 1349 1347 1346 1344 1343 1343 1342 1341 1340 1340 1340 1340 1339 1339 1338
1389 1388 1386 1385 1383 1381 1380 1379 1377 1376 1375 1373 1372 1371 1370 1368 1367 1366 1364 1363 1361 1359 1358 1356 1355 1353 1352 1350 1349 1347 1346 1345 1344 1343 1342 1342 1341 1340 1340 1340 1340 1340 1339 1339
1388 1387 1385 1383 1382 1380 1378 1377 1376 1374 1373 1372 1370 1369 1368 1367 1366 1364 1362 1362 1360 1358 1357 1355 1354 1352 1351 1349 1348 1347 1346 1345 1344 1344 1343 1342 1341 1341 1340 1340 1340 1340 1340 1340
1387 1386 1384 1383 1381 1379 1377 1376 1375 1373 1372 1370 1369 1368 1367 1365 1364 1363 1362 1360 1359 1357 1355 1354 1353 1351 1350 1349 1348 1347 1346 1345 1344 1344 1343 1342 1342 1342 1341 1341 1341 1341 1340 1341
1387 1385 1383 1382 1380 1378 1377 1375 1373 1372 1371 1369 1368 1367 1366 1365 1364 1362 1361 1359 1358 1356 1355 1353 1352 1351 1349 1348 1347 1346 1346 1345 1344 1344 1343 1342 1342 1342 1342 1342 1341 1342 1342 1342
1386 1384 1383 1381 1380 1378 1376 1375 1373 1371 1370 1369 1367 1366 1365 1364 1363 1361 1360 1358 1357 1356 1354 1353 1352 1350 1349 1348 1347 1346 1346 1345 1345 1344 1343 1343 1343 1343 1342 1342 1342 1343 1343 1343
1385 1383 1382 1380 1379 1377 1376 1374 1373 1371 1370 1368 1367 1366 1365 1363 1362 1361 1359 1358 1356 1355 1354 1352 1351 1350 1349 1348 1347 1346 1345 1345 1344 1344 1344 1343 1343 1343 1343 1343 1343 1344 1344 1345